Location: Newark
(45.8667°N, 9.7333°E)
Time: 13:12:33
(UTC+00:00)

ITAMSAT 1 - Pass Details

Date: 29 February 2020
Orbit: 784 x 796 km, 98.9° (Epoch: 07 April)

Event Time Altitude Azimuth Distance (km) Brightness Sun altitude
Rises 17:34:36 0° 213° (SSW) 3,270 11.5 -5.6°
Reaches altitude 10° 17:37:57 10° 236° (SW) 2,350 11.2 -6.2°
Maximum altitude 17:40:52 15° 271° (W) 2,023 11.3 -6.7°
Drops below altitude 10° 17:43:49 10° 305° (NW) 2,364 11.0 -7.2°
Sets 17:47:13 0° 329° (NNW) 3,302 11.3 -7.8°
